User: anonymous   Login
Location: Fort Wayne
(41.1310°N, 85.1290°W)
Time: 05:44:49
(UTC-04:00)
Language:

Cosmos 1000 Rocket - Orbit

View from above orbital plane
View from above orbital plane
View from above satellite
View from above satellite

Ground track
Ground track

The orbit data is extracted from the following two-line orbital elements,

1 10777U 78034B   14304.90111322  .00000092  00000-0  77602-4 0  3806
2 10777 082.9452 224.0254 0026201 008.1054 057.4799 13.77316569838336
Epoch (UTC): 31 October 2014 21:37:36
Eccentricity: 0.0026201
inclination: 82.9452°
perigee height: 954 km
apogee height: 992 km
right ascension of ascending node: 224.0254°
argument of perigee: 8.1054°
revolutions per day: 13.77316569
mean anomaly at epoch: 57.4799°
orbit number at epoch: 83833

The dashed part of the orbit path shows where the satellite is in the earth's shadow,  

DLR